Zurück zum Katalog

ATLAS AGENA R/B

AktivMEO
NORAD 7964·ROCKET BODY·🇺🇸 United States

Gestartet Jun 18, 1975 von Cape Canaveral Space Force Station

Loading…

Nächste Überflüge (nächste 24 Stunden)

TLE

AktuellSource: Space-Track

Epoche: Sep 14, 2026, 05:41 UTC

1 07964U 75055B   26257.23741690 -.00000023  00000-0  00000-0 0  9998
2 07964   9.4185 230.5966 1192972 148.4014 219.2030  1.02089476 27608

Verfolge ATLAS AGENA R/B in Echtzeit mit AllMySat

Download on the App Store